Location: Camp Creek
(33.9000°N, 111.8167°W)
Time: 04:22:06
(UTC-07:00)

DELTA 2 R/B (1) - Visible Passes

Search period start: 06 July 2015 00:00
Search period end: 16 July 2015 00:00
Orbit: 791 x 803 km, 39.6° (Epoch: 05 July)

Date Brightness Start Highest point End Pass type
(mag) Time Alt. Az. Time Alt. Az. Time Alt. Az.
06 Jul 3.9 21:35:15 10° WNW 21:40:48 62° NNE 21:43:48 27° E visible
06 Jul 5.1 23:21:50 10° WNW 23:24:33 28° W 23:24:33 28° W visible
07 Jul 4.0 21:04:30 10° WNW 21:10:02 59° NNE 21:14:19 17° E visible
07 Jul 4.3 22:51:05 10° WNW 22:55:04 42° W 22:55:04 42° W visible
08 Jul 4.1 20:33:46 10° WNW 20:39:17 57° NNE 20:44:49 10° E visible
08 Jul 3.7 22:20:19 10° WNW 22:25:37 59° SW 22:25:37 59° SW visible
09 Jul 4.2 20:03:02 10° WNW 20:08:31 55° NNE 20:14:01 10° E visible
09 Jul 3.6 21:49:34 10° WNW 21:55:07 65° SSW 21:56:12 53° SSE visible
10 Jul 3.6 21:18:49 10° WNW 21:24:23 69° SSW 21:26:49 34° SE visible
10 Jul 5.8 23:06:35 10° W 23:07:35 13° WSW 23:07:35 13° WSW visible
11 Jul 3.6 20:48:05 10° WNW 20:53:40 75° SSW 20:57:30 21° SE visible
11 Jul 5.4 22:35:38 10° W 22:38:15 18° WSW 22:38:15 18° WSW visible
12 Jul 3.6 20:17:20 10° WNW 20:22:56 80° SSW 20:28:12 12° ESE visible
12 Jul 5.1 22:04:43 10° W 22:08:59 22° SW 22:08:59 22° SW visible
13 Jul 5.0 21:33:50 10° W 21:38:17 24° SW 21:39:45 21° SSW visible
14 Jul 5.0 21:02:58 10° W 21:07:36 26° SW 21:10:35 17° S visible
15 Jul 4.9 20:32:08 10° W 20:36:54 29° SW 20:41:29 11° SSE visible
